Погода в Кабуле

Афганистан     34°30′55″N   69°10′34″E
темп.,
°C
ветер,
м/с
пор.,
м/с
влажн.,
%
обл.,
%
осадки,
мм/ч
давл.,
гПа
погр.,
м
10 августа, ср
ср1001:30+21ссз22270 0.0 100517
04:30+19зсз11320 0.0 100612
07:30+22ссз11250 0.0 1006286
10:30+27с12160 0.0 10031160
13:30+31ссв11120 0.0 10002057
16:30+33ссв32100 0.0 9972624
19:30+27с46170 0.0 1000219
22:30+23ссз22210 0.0 100251
11 августа, чт
чт1101:30+21ссз11241 0.0 100317
04:30+21сз112496 0.0 100439
07:30+23сз11210 0.0 1005270
10:30+28св12150 0.0 10021120
13:30+32св22150 0.0 9992175
16:30+32всв85264 0.0 9972655
19:30+28всв344687 0.1 999476
22:30+25с2339100 1.0 1002251
12 августа, пт
пт1201:30+22св0128100 0.6 1004106
04:30+21с224092 0.8 100593
07:30+22ссв226753 0.6 1006522
10:30+26всв44465 0.7 10041357
13:30+28всв65381 0.0 10011334
16:30+28всв55395 0.0 10001023
19:30+25всв33535 0.0 1002485
22:30+23ссв236239 0.0 1004380
13 августа, сб
сб1301:30+21с126780 0.0 100498
04:30+20сз216399 0.0 100537
07:30+22ссз113755 0.0 1006274
10:30+27ссв2219100 0.0 10031201
13:30+31всв3314100 0.0 9991888
16:30+31всв54192 0.0 9981619
19:30+27св34366 0.0 1000263
22:30+25ссз233292 0.0 1002230
14 августа, вс
вс1401:30+23сз113387 0.0 1003196
04:30+22с114166 0.5 1004137
07:30+23ссв225691 0.6 1005496
10:30+27св22465 0.8 10031500
13:30+31всв423169 0.0 10001973
16:30+30всв53345 0.0 9991635
19:30+26ююв3449100 0.7 1002923
22:30+22юв225646 4.4 1004179